Location: The Saddle
(36.8333°N, 80.3417°W)
Time: 01:48:25
(UTC-05:00)

Vanguard 3 - Visible Passes

Search period start: 07 February 2026 00:00
Search period end: 17 February 2026 00:00
Orbit: 507 x 3206 km, 33.3° (Epoch: 6 February)

Date Brightness Start Highest point End Pass type
(mag) Time Alt. Az. Time Alt. Az. Time Alt. Az.
7 Feb 8.1 18:57:42 10° SSW 19:01:25 21° SSE 19:03:21 15° SE visible
8 Feb 7.4 19:46:38 10° SW 19:50:24 34° S 19:50:24 34° S visible
9 Feb 8.3 18:24:53 10° SW 18:29:37 25° SSE 18:33:06 10° ESE visible
9 Feb 8.9 20:36:06 10° WSW 20:37:27 18° WSW 20:37:27 18° WSW visible
10 Feb 7.4 19:14:08 10° WSW 19:19:03 39° S 19:20:34 28° ESE visible
11 Feb 7.3 20:03:51 10° WSW 20:07:35 43° SW 20:07:35 43° SW visible
12 Feb 7.6 18:41:22 10° WSW 18:47:15 44° S 18:50:41 14° E visible
12 Feb 9.2 20:53:39 10° W 20:54:36 15° WSW 20:54:36 15° WSW visible
13 Feb 6.9 19:31:19 10° WSW 19:36:41 55° S 19:37:41 43° SE visible
14 Feb 7.9 20:21:21 10° W 20:24:41 36° WSW 20:24:41 36° WSW visible
15 Feb 7.2 18:58:31 10° WSW 19:04:52 59° S 19:07:46 20° ESE visible
15 Feb 9.6 21:11:20 10° W 21:11:41 12° W 21:11:41 12° W visible
16 Feb 6.9 19:48:45 10° W 19:54:15 54° S 19:54:46 50° SSE visible
